sat.trackr.live / text

‹ back to catalog

FLOCK 4H-1

NORAD 66704 · 2025-276AQ

PAYLOAD ACTIVE UNKNOWN

§ Identity

Operator
Country
US
Launch date
2025-11-28
Launch site
AFWTR
Launch vehicle
Mass (kg)
RCS (m²)

Purposes: earth_obs

External: N2YO · Heavens-Above · Gunter

§ Orbital elements

Epoch: 2026-05-25T03:29:55.841280Z

Period
94.72 min
Inclination
97.4182°
Eccentricity
0.0003215
Mean motion
15.20254492 rev/d
Perigee alt
502.9 km
Apogee alt
507.3 km
Semi-major
6,883.2 km
B*
2.3099e-4
RAAN
219.1999°
Arg perigee
66.3228°
Mean anomaly
293.8344°
Rev number
2,693

§ Raw data

FLOCK 4H-11 66704U 25276AQ  26145.14578520  .00004944  00000+0  23099-3 0  99912 66704  97.4182 219.1999 0003215  66.3228 293.8344 15.20254492 26931

JSON: /api/v1/satellites/66704 · /tle

For live sub-satellite position, see the globe view (requires WebGL).

§ Visibility from observer

Set your observer location to see the next 7 days of passes ≥ 10°. The values pass through the URL so the page stays shareable.

No JS? Fill the form by hand. The geolocation button needs JavaScript.